Simultaneous Nadir Overpasses (SNOs) Predictions

Prediction of SNOs between LANDSAT-8 and NOAA-19 Satellite Orbit:

Table of predicted SNOs for the next 14.0 days since TLE Epoch: 12/4/2021
Index Date (LANDSAT-8) Time (LANDSAT-8) Lat,Lon (LANDSAT-8) SZA (LANDSAT-8 ) Date (NOAA-19) Time (NOAA-19) Lat,Lon (NOAA-19) SZA (NOAA-19 ) Distance(km) Time Diff (sec)
1 12/06/2021 07:25:55 -80.63, -77.96 75.22 12/06/2021 07:25:49 -80.62, -77.95 75.23 1.02 6
2 12/08/2021 12:59:39 80.61, 18.43 104.97 12/08/2021 12:58:49 80.63, 18.55 104.98 3.12 50
3 12/08/2021 13:49:06 -80.61,-173.92 75.03 12/08/2021 13:49:53 -80.61,-173.74 74.99 3.25 47
4 12/10/2021 19:22:49 80.62, -77.26 105.18 12/10/2021 19:22:53 80.63, -77.30 105.18 1.17 4
5 12/13/2021 00:56:33 -80.63, 19.40 74.67 12/13/2021 00:56:03 -80.63, 19.30 74.68 1.91 30
6 12/13/2021 01:45:59 80.63,-172.98 105.33 12/13/2021 01:46:56 80.61,-172.82 105.36 3.41 57
7 12/15/2021 06:30:16 80.63, 115.97 105.44 12/15/2021 06:29:03 80.65, 115.68 105.41 5.82 73
8 12/15/2021 07:19:43 -80.63, -76.33 74.55 12/15/2021 07:20:06 -80.62, -76.24 74.55 2.22 23
9 12/17/2021 12:53:26 80.63, 20.19 105.51 12/17/2021 12:53:06 80.64, 20.14 105.51 1.21 20



Historial Predications of SNOs between LANDSAT-8 and NOAA-19
